Location: Colonia Mina de C?rbuni
(46.1667°N, 22.7167°E)
Time: 17:29:43
(UTC+00:00)

BlueWalker 3 - Visible Passes

Search period start: 27 February 2024 00:00
Search period end: 08 March 2024 00:00
Orbit: 486 x 500 km, 53.2° (Epoch: 26 February)

Date Brightness Start Highest point End Pass type
(mag) Time Alt. Az. Time Alt. Az. Time Alt. Az.
27 Feb 3.1 17:36:39 10° NW 17:40:02 30° N 17:41:20 24° NE visible
27 Feb 4.8 19:14:55 10° WNW 19:15:48 16° WNW 19:15:48 16° WNW visible
28 Feb 3.1 17:12:47 10° NW 17:16:11 30° N 17:18:31 16° ENE visible
28 Feb 3.8 18:51:04 10° WNW 18:52:59 28° NW 18:52:59 28° NW visible
29 Feb 3.1 16:48:55 10° NW 16:52:18 30° N 16:55:40 10° ENE visible
29 Feb 2.5 18:27:12 10° WNW 18:30:12 53° NW 18:30:12 53° NW visible
01 Mar 1.7 18:03:18 10° WNW 18:07:06 77° NNE 18:07:26 69° E visible
02 Mar 1.8 17:39:24 10° WNW 17:43:11 75° NNE 17:44:44 33° ESE visible
02 Mar 4.8 19:18:18 10° W 19:19:13 14° W 19:19:13 14° W visible
03 Mar 1.8 17:15:29 10° WNW 17:19:16 73° NNE 17:22:05 17° ESE visible
03 Mar 4.2 18:54:20 10° W 18:56:35 20° WSW 18:56:35 20° WSW visible
04 Mar 1.9 16:51:32 10° WNW 16:55:18 71° NNE 16:59:04 10° ESE visible
04 Mar 3.9 18:30:21 10° W 18:33:16 22° SW 18:34:02 20° SSW visible
05 Mar 4.0 18:06:21 10° W 18:09:20 22° SW 18:11:34 14° S visible
06 Mar 4.0 17:42:19 10° W 17:45:21 23° SW 17:48:23 10° S visible
07 Mar 4.1 17:18:18 10° W 17:21:23 24° SW 17:24:27 10° S visible
